Flag for Turkey Weather past 2 weeks in Gelibolu, Turkey

Now
37 °F

Clear.


Feels Like: 35 °F
Forecast: 43 / 58 °F
Wind: 3 mph from Northeast

Location: Canakkale Airport

Current Time: Dec 22, 2014 at 6:30:45 AM

Latest Report: Dec 22, 2014 at 4:50 AM


Visibility: 10 mi

Pressure: 30.39 "Hg

Humidity: 75%

Dew point: 30 °F

Location of GeliboluLocation

Historic Weather in Gelibolu — Graph

°F

Gelibolu temperature yesterday

Maximum temperature yesterday: 57 °F (at 10:50 AM)
Minimum temperature yesterday: 41 °F (at 3:50 AM)
Average temperature yesterday: 50 °F

Past Weeks' High & Low Weather Summary

 TemperatureHumidityPressure
High63 °F (Dec 18, 11:50 AM)100% (Dec 7, 4:50 AM)30.39 "Hg (Dec 7, 4:50 AM)
Low34 °F (Dec 14, 6:50 AM)61% (Dec 21, 11:50 PM)29.62 "Hg (Dec 9, 12:50 PM)
Average50 °F89%30.07 "Hg
* Reported Dec 7 4:50 AM — Dec 22 4:50 AM, Gelibolu, Weather by CustomWeather, © 2014

Note: Actual official high and low records may vary slightly from our data, if they occured in-between our weather recording intervals... More about our weather records

Advertising

Gelibolu weather history for previous 24 hours

 ConditionsComfort  
Time TempWeatherWind HumidityBarometerVisibility
4:50 AM
Dec 22
37 °FClear.3 mph75%30.39 "Hg10 mi
3:50 AM39 °FClear.6 mph70%30.39 "Hg10 mi
2:50 AM39 °FClear.5 mph70%30.39 "Hg10 mi
1:50 AM43 °FClear.10 mph66%30.36 "Hg10 mi
12:50 AM43 °FClear.9 mph66%30.36 "Hg10 mi
11:50 PM
Dec 21
45 °FClear.12 mph61%30.36 "Hg10 mi
10:50 PM46 °FClear.10 mph66%30.33 "Hg10 mi
9:50 PM48 °FClear.15 mph62%30.30 "Hg10 mi
8:50 PM48 °FPassing clouds.15 mph66%30.27 "HgN/A
7:50 PM50 °FPartly cloudy.14 mph62%30.21 "HgN/A
6:50 PM50 °FPartly cloudy.9 mph71%30.21 "HgN/A
5:50 PM52 °FPartly cloudy.10 mph67%30.15 "HgN/A
4:50 PM54 °FBroken clouds.12 mph77%30.12 "HgN/A
3:50 PM54 °FBroken clouds.3 mph88%30.09 "HgN/A
2:50 PM54 °FSprinkles. Broken clouds.3 mph88%30.09 "Hg5 mi
1:50 PM55 °FSprinkles. Broken clouds.9 mph82%30.07 "Hg5 mi
12:50 PM57 °FSprinkles. Broken clouds.8 mph77%30.04 "Hg5 mi
11:50 AM55 °FSprinkles. Broken clouds.6 mph88%30.04 "Hg5 mi
10:50 AM57 °FBroken clouds.13 mph77%30.04 "Hg5 mi
9:50 AM54 °FBroken clouds.9 mph88%30.04 "Hg4 mi
8:50 AM52 °FBroken clouds.5 mph94%30.04 "Hg4 mi
7:50 AM50 °FBroken clouds.2 mph94%30.04 "HgN/A
6:50 AM48 °FPartly cloudy.2 mph94%30.04 "HgN/A
Weather by CustomWeather, © 2014

See weather overviewHow to use our weather pages